Weather History for Lancaster, CA

Change the Weather History Date:

Friday, August 30, 2013

  Actual Average Record
Temperature  
Mean Temperature 85 °F 79 °F  
Max Temperature 100 °F 96 °F 109 °F (1948)
Min Temperature 70 °F 62 °F 50 °F (1975)
Degree Days  
Heating Degree Days 0    
Month to date heating degree days 0  
Since 1 June heating degree days 0  
Since 1 July heating degree days 0  
Cooling Degree Days 20    
Month to date cooling degree days 498  
Year to date cooling degree days 1850  
Since 1 June cooling degree days 1592  
Growing Degree Days 34 (Base 50)    
Moisture  
Dew Point 56 °F    
Average Humidity 39    
Maximum Humidity 54    
Minimum Humidity 23    
Precipitation  
Precipitation 0.00 in 0.01 in 0.57 in (1967)
Month to date precipitation T 0.10  
Year to date precipitation 1.12 5.10  
Since 1 July precipitation 0.02 0.19  
Snow  
Snow 0.00 in - 0.00 in ()
Month to date snowfall 0.0  
Since 1 June snowfall 0.0  
Since 1 July snowfall 0.0  
Snow Depth 0.00 in    
Sea Level Pressure  
Sea Level Pressure 29.96 in    
Wind  
Wind Speed 11 mph (WSW)    
Max Wind Speed 25 mph    
Max Gust Speed 32 mph    
Visibility 10 miles    
Events      
T = Trace of Precipitation, MM = Missing Value Source: NWS Daily Summary

Daily Weather History Graph

Daily Weather History Graph

Search for Another Location

Airport:

Trip Planner

Search our weather history database for the weather conditions in past years. The results will help you decide how hot, cold, wet, or windy it might be!

Date:

Astronomy

Aug. 30, 2013 Rise Set
Actual Time 6:24 AM PDT 7:21 PM PDT
Civil Twilight 5:58 AM PDT 7:47 PM PDT
Nautical Twilight 5:28 AM PDT 8:17 PM PDT
Astronomical Twilight 4:56 AM PDT 8:49 PM PDT
Moon 1:14 AM PDT (8/30) 3:33 PM PDT (8/30)
Length of Visible Light 13h 48m
Length of Day
12h 56m
Waning Crescent, 28% of the Moon is Illuminated
Aug 30
Waning Crescent
Sep 5
New
Sep 12
First Quarter
Sep 19
Full
Sep 26
Last Quarter

Hourly Weather History & Observations

Time (PDT) Temp. Heat Index Dew Point Humidity Pressure Visibility Wind Dir Wind Speed Gust Speed Precip Events Conditions
12:56 AM 78.1 °F - 43.0 °F 29% 29.97 in 10.0 mi WNW 5.8 mph - N/A   Clear
1:56 AM 79.0 °F - 50.0 °F 36% 29.96 in 10.0 mi WNW 9.2 mph - N/A   Clear
2:56 AM 79.0 °F - 53.1 °F 40% 29.95 in 10.0 mi WNW 10.4 mph - N/A   Clear
3:56 AM 77.0 °F - 54.0 °F 45% 29.95 in 10.0 mi WNW 11.5 mph - N/A   Clear
4:56 AM 75.9 °F - 54.0 °F 46% 29.96 in 10.0 mi WNW 10.4 mph - N/A   Clear
5:56 AM 73.0 °F - 52.0 °F 48% 29.98 in 10.0 mi Calm Calm - N/A   Clear
6:56 AM 71.1 °F - 48.9 °F 45% 30.00 in 10.0 mi Calm Calm - N/A   Clear
7:56 AM 75.9 °F - 52.0 °F 43% 30.01 in 10.0 mi Calm Calm - N/A   Clear
8:56 AM 82.0 °F - 51.1 °F 34% 30.01 in 10.0 mi Calm Calm - N/A   Clear
9:56 AM 88.0 °F - 51.1 °F 28% 30.01 in 10.0 mi Calm Calm - N/A   Clear
10:56 AM 91.9 °F - 52.0 °F 26% 30.00 in 10.0 mi Variable 4.6 mph - N/A   Clear
11:56 AM 95.0 °F - 52.0 °F 23% 29.99 in 10.0 mi NE 5.8 mph - N/A   Clear
12:56 PM 96.1 °F 93.8 °F 54.0 °F 24% 29.96 in 10.0 mi Variable 4.6 mph - N/A   Clear
1:56 PM 98.1 °F 96.4 °F 55.0 °F 24% 29.93 in 10.0 mi SE 6.9 mph - N/A   Clear
2:56 PM 97.0 °F 95.3 °F 55.9 °F 25% 29.90 in 10.0 mi SSW 9.2 mph - N/A   Mostly Cloudy
3:56 PM 97.0 °F 96.9 °F 60.1 °F 29% 29.89 in 10.0 mi SW 19.6 mph 27.6 mph N/A   Clear
4:56 PM 93.9 °F 94.8 °F 62.1 °F 35% 29.89 in 10.0 mi WSW 26.5 mph 32.2 mph N/A   Clear
5:56 PM 90.0 °F 90.3 °F 62.1 °F 39% 29.91 in 10.0 mi SW 20.7 mph 29.9 mph N/A   Clear
6:56 PM 86.0 °F 86.8 °F 63.0 °F 46% 29.93 in 10.0 mi WSW 23.0 mph 28.8 mph N/A   Clear
7:56 PM 82.9 °F 84.0 °F 63.0 °F 51% 29.94 in 10.0 mi WSW 20.7 mph 28.8 mph N/A   Clear
8:56 PM 82.0 °F 83.1 °F 63.0 °F 52% 29.96 in 10.0 mi WSW 19.6 mph 26.5 mph N/A   Scattered Clouds
9:56 PM 82.0 °F 83.1 °F 63.0 °F 52% 29.97 in 10.0 mi WSW 15.0 mph 26.5 mph N/A   Clear
10:56 PM 81.0 °F 81.9 °F 62.1 °F 52% 29.96 in 10.0 mi WSW 19.6 mph - N/A   Clear
11:56 PM 81.0 °F 82.2 °F 63.0 °F 54% 29.96 in 10.0 mi WSW 16.1 mph 23.0 mph N/A   Clear